GEFSMA_con_probscp_366.txt.gz
Probability
1 2 2 2 2 1 0 0 0 0 0 0 0 0 0 0 0 0 0 0 0 0 0 0 1 3 4 5 4 2 2 3 2 2 2 1 0 0 0 0 0 0 0
0 1 1 2 2 1 0 0 0 0 0 0 0 0 0 0 0 0 0 0 0 0 0 0 1 4 4 5 5 4 2 2 1 1 2 2 1 0 0 0 0 0 0
0 0 0 1 1 0 0 0 0 0 0 0 0 0 0 0 0 0 0 0 0 0 0 0 2 4 5 5 6 5 4 3 1 1 3 3 2 1 0 0 0 0 0
0 0 0 0 0 0 0 0 0 0 0 0 0 0 0 0 0 0 0 0 0 0 0 0 2 3 4 4 5 6 5 4 3 3 3 3 3 1 0 0 0 0 0
0 0 0 0 0 0 0 0 0 0 0 0 0 0 0 0 0 0 0 0 0 0 0 0 1 2 3 3 4 5 6 5 4 4 4 4 4 3 1 0 0 1 1
0 0 0 0 0 0 0 0 0 0 0 0 0 0 0 0 0 0 0 0 0 1 1 1 0 1 2 3 4 4 5 5 4 4 3 4 5 4 2 1 2 3 3
0 0 0 0 0 0 0 0 0 0 0 0 0 0 0 0 0 0 0 0 1 2 2 1 0 1 1 2 3 4 4 4 4 4 3 4 5 5 2 2 3 4 4
0 0 0 0 0 0 0 0 0 0 0 0 0 0 0 0 0 0 0 0 1 2 2 1 0 0 0 1 2 2 2 3 4 4 4 5 5 4 3 2 2 2 3
4 4 2 0 0 0 0 0 0 0 0 1 1 1 1 0 0 0 0 0 1 1 1 0 0 0 0 0 1 1 1 1 2 3 5 5 4 3 3 3 2 2 2
8 7 5 2 1 0 0 1 1 1 1 2 3 2 2 1 1 1 1 0 0 0 0 0 0 0 0 0 0 0 0 0 1 1 3 4 4 3 4 5 5 4 3
7 6 5 4 2 1 1 2 2 2 3 4 4 3 3 3 3 4 3 2 2 1 0 0 0 0 0 0 0 0 0 0 0 0 1 2 3 4 5 5 6 5 4
4 4 4 4 3 3 3 3 3 3 3 4 3 3 4 4 5 5 5 4 3 1 0 0 0 0 0 0 0 0 0 0 0 0 0 1 2 3 4 4 4 4 3
4 4 3 3 3 3 3 3 3 3 3 3 3 3 3 4 4 4 5 4 3 1 0 0 0 0 0 0 0 0 0 0 0 0 0 0 1 3 4 4 4 4 3
4 4 3 3 3 3 3 3 3 3 3 3 3 3 3 3 4 4 4 4 3 1 1 0 0 0 0 0 0 0 0 0 0 0 0 0 1 3 5 5 6 5 4
5 4 3 3 3 3 3 3 3 3 3 3 3 4 4 4 5 4 4 4 3 3 2 1 0 0 0 0 0 0 0 0 0 0 0 0 1 3 4 5 6 5 4
6 5 4 4 4 4 4 4 4 3 3 3 4 4 5 6 7 6 5 4 4 3 3 2 1 0 0 0 0 0 0 0 0 0 0 0 1 2 3 3 3 3 3
9 8 6 6 6 6 6 6 5 4 4 4 4 4 5 7 8 9 8 6 6 5 5 4 1 0 0 0 0 0 0 0 0 0 0 0 0 1 1 1 1 1 1
10 9 7 6 6 6 6 6 6 6 6 5 4 4 5 6 8 10 10 9 9 8 7 5 2 0 0 0 0 0 0 0 0 0 0 0 0 0 0 0 0 0 0
9 8 7 6 6 6 6 6 6 6 6 6 6 5 5 5 6 7 8 9 9 9 9 7 4 1 0 0 0 0 0 0 0 0 0 0 0 0 0 0 0 0 0
8 7 7 6 6 6 6 6 6 6 6 6 5 5 4 4 4 4 5 6 8 9 10 9 5 2 0 0 0 0 0 0 0 0 0 0 0 0 0 0 0 0 0
7 7 6 6 6 6 5 4 4 5 5 5 5 5 5 5 4 3 2 3 6 8 9 9 7 4 2 0 0 0 0 0 0 0 0 0 0 0 0 0 0 0 0
6 6 6 5 5 4 3 2 3 5 6 6 6 6 6 6 5 2 1 1 2 5 6 7 8 6 4 2 1 0 0 0 0 1 0 0 0 0 0 0 0 0 0
4 4 4 4 3 3 1 1 2 5 7 7 7 7 7 7 6 4 2 1 1 2 3 5 6 7 6 4 3 2 1 0 0 1 1 0 0 0 0 0 0 0 0
2 3 3 3 3 1 0 0 1 3 6 8 8 8 8 7 6 5 5 4 2 1 2 3 4 6 5 4 5 4 3 1 0 0 1 0 0 0 0 0 0 0 0
2 3 3 3 2 1 0 0 0 2 5 7 8 7 5 4 3 3 4 5 4 2 2 2 3 4 4 3 3 4 4 2 0 0 0 0 0 0 0 0 0 0 0
3 3 3 3 1 0 0 0 0 2 5 7 7 5 2 1 1 1 3 4 4 3 2 2 3 3 3 3 2 4 5 4 1 0 0 0 0 0 0 0 0 0 0

GEFSMA_con_probscp_372.txt.gz
Probability
3 3 3 3 2 1 1 2 2 1 2 2 1 0 0 0 0 1 2 2 2 2 1 0 0 0 0 0 1 5 7 7 6 5 4 3 2 1 1 0 0 0 0
3 3 3 3 1 0 1 2 2 2 2 2 1 0 0 0 0 0 1 1 1 1 0 0 0 0 0 1 2 4 7 8 7 5 3 3 3 2 1 1 0 0 0
2 2 2 2 1 0 1 2 3 2 1 1 0 0 0 0 0 0 0 0 1 1 0 1 1 1 1 2 3 5 8 8 6 5 3 3 3 3 1 1 1 1 0
1 1 1 1 0 0 1 2 3 3 2 1 1 1 1 1 1 0 0 0 1 1 1 1 2 2 3 3 4 6 8 7 6 5 4 3 3 2 1 1 2 2 1
1 0 0 0 0 0 1 1 2 3 3 2 2 2 2 2 2 1 1 1 1 1 0 1 3 3 4 4 4 6 6 6 6 5 4 3 4 3 1 1 2 3 3
1 1 0 0 0 0 0 0 1 2 3 3 2 1 2 2 2 2 2 2 1 0 1 2 3 4 4 5 5 5 5 5 5 4 3 4 4 3 1 0 1 2 3
4 3 2 1 2 2 1 0 1 2 3 3 2 1 1 1 1 2 3 2 1 1 3 4 5 5 5 5 5 4 5 5 3 2 2 3 3 3 3 2 2 3 4
9 7 6 5 4 4 3 2 2 4 4 3 2 1 0 0 1 2 4 4 4 4 6 7 8 7 7 8 7 5 4 4 3 2 1 1 2 3 4 4 5 5 5
12 12 11 9 7 7 5 3 4 5 5 3 2 2 2 2 2 3 5 7 7 8 8 9 9 8 9 12 11 6 3 2 2 1 0 0 1 1 2 3 5 6 6
13 13 13 12 12 11 9 7 6 7 7 6 5 5 4 4 4 4 5 7 9 10 10 9 9 8 9 12 12 6 1 1 1 1 0 1 1 1 1 2 4 5 5
12 11 12 14 15 14 13 12 11 10 9 9 9 9 8 6 6 6 5 6 9 11 11 10 10 9 9 9 8 4 1 0 0 0 0 1 2 2 1 2 4 5 6
9 9 10 13 14 15 16 15 13 11 10 10 12 12 10 8 7 8 7 7 9 11 11 11 11 10 9 8 6 3 1 0 0 0 0 1 1 1 1 2 3 4 5
9 9 9 11 12 13 14 14 12 9 8 8 10 12 11 10 9 9 9 9 10 10 10 10 10 11 11 9 6 2 1 0 0 0 0 0 0 1 1 3 3 3 4
13 12 10 9 9 10 11 12 11 10 8 7 8 11 13 13 11 11 11 11 10 9 9 10 10 11 12 10 5 3 2 1 0 0 0 0 0 1 2 3 4 3 3
15 13 10 9 8 9 11 12 12 12 11 10 10 12 15 15 14 14 14 14 12 10 9 11 11 10 10 8 4 4 4 1 0 0 0 0 0 1 2 3 4 4 3
17 15 12 10 10 12 14 15 15 13 12 11 11 13 14 15 15 15 16 16 15 12 10 12 14 12 10 7 6 6 5 2 1 0 0 0 0 0 1 2 3 3 3
20 18 16 15 15 16 16 16 15 12 10 10 10 10 12 13 13 14 15 16 17 15 13 13 15 15 12 9 8 8 6 4 3 1 0 0 0 0 0 1 1 2 2
22 20 20 20 19 18 18 16 13 11 10 10 9 9 9 10 11 13 14 15 16 16 14 14 16 16 14 10 9 8 5 4 3 1 0 0 0 0 0 0 0 1 1
24 23 22 21 20 19 18 16 14 13 12 11 10 9 9 9 11 11 11 12 13 13 13 14 15 15 13 10 9 7 5 4 3 1 0 0 0 0 0 0 0 0 0
24 24 23 21 20 19 18 17 16 15 15 14 13 12 11 11 10 8 7 8 9 11 12 14 14 13 12 11 9 8 6 5 3 2 1 1 0 0 0 0 0 0 0
22 21 21 20 19 18 17 16 16 17 17 16 16 15 13 10 8 5 4 5 8 10 12 13 13 11 11 10 10 9 7 6 5 3 3 2 1 0 0 0 0 0 0
20 19 18 17 17 16 13 12 13 15 16 17 17 15 12 9 7 6 4 4 5 8 11 12 12 11 11 11 11 9 8 8 6 5 4 3 1 0 0 0 0 0 0
19 18 17 16 15 13 9 7 8 10 13 15 16 14 11 9 8 8 7 5 4 6 9 12 14 13 14 15 15 12 11 10 9 7 6 4 3 1 0 0 0 0 0
19 17 17 17 15 11 6 4 5 6 9 10 12 12 11 9 9 10 10 8 7 8 8 10 13 13 13 14 15 14 12 11 9 10 9 7 5 3 1 0 0 0 0
18 16 15 15 13 9 4 2 3 5 7 7 9 9 8 8 8 8 10 11 11 10 9 8 9 9 8 8 10 13 12 9 8 9 11 10 7 4 2 1 0 0 0
17 14 12 11 10 7 4 1 2 5 6 7 7 7 6 5 6 7 10 13 13 12 10 7 6 5 4 3 6 11 12 8 6 8 11 12 8 4 2 1 1 1 1

GEFSMA_con_probscp_378.txt.gz
Probability
1 2 3 3 4 5 5 4 4 2 0 0 1 2 3 3 2 1 1 1 3 3 3 3 3 3 5 6 6 6 6 6 8 9 7 4 2 1 0 0 0 0 0
1 3 3 3 5 6 7 6 5 3 1 1 2 3 3 3 2 2 2 2 3 3 3 2 3 3 4 6 6 6 5 5 6 8 6 3 1 0 0 0 0 0 0
4 4 5 5 7 8 9 9 8 5 2 2 3 3 4 4 4 4 4 4 4 3 4 4 3 3 3 5 6 5 5 4 5 7 6 3 1 0 0 0 0 0 0
9 9 10 11 12 12 11 11 10 7 5 4 4 4 5 7 7 6 6 6 5 5 6 6 5 5 5 6 6 6 6 6 6 7 5 4 2 1 0 0 0 0 0
14 15 17 20 20 16 14 12 11 9 8 7 6 5 6 10 11 10 8 7 7 8 7 6 7 8 8 7 7 7 7 7 7 7 5 3 2 1 0 0 0 0 0
19 19 20 23 23 20 17 14 11 10 9 8 6 5 7 12 15 14 9 7 8 10 9 9 10 10 10 9 8 8 7 7 6 6 3 2 2 1 0 0 0 0 0
22 20 19 22 23 21 19 16 13 12 10 8 7 6 7 11 14 14 11 9 9 11 11 12 12 12 12 10 8 7 7 5 4 4 3 2 2 2 1 1 0 0 0
24 22 21 23 23 21 20 18 16 14 13 10 10 8 7 9 11 12 12 12 11 12 12 12 11 12 14 12 9 8 7 5 4 3 3 3 2 2 2 1 0 0 0
24 23 23 25 25 22 20 18 17 16 14 13 12 9 7 9 11 12 12 12 12 12 12 9 8 12 16 16 12 10 7 5 3 3 4 3 1 1 1 1 0 0 0
23 22 23 25 25 23 20 19 19 17 15 13 11 9 10 13 14 13 12 11 11 11 11 10 9 12 17 19 17 11 7 4 2 3 4 3 1 0 0 0 0 0 0
23 23 24 26 27 24 22 22 21 19 16 14 12 11 12 14 14 14 11 10 10 11 11 10 9 11 15 19 17 12 6 3 1 2 3 2 1 0 1 2 1 1 0
25 26 26 27 27 24 22 23 22 19 18 16 13 13 13 13 12 12 10 9 10 12 13 12 11 12 14 15 14 10 6 3 1 0 1 1 0 0 1 2 2 2 1
25 27 28 28 28 25 21 21 20 18 17 16 15 14 14 13 11 11 10 10 11 14 15 14 14 14 14 13 10 8 6 3 1 0 0 0 0 0 1 1 2 2 2
22 25 29 32 32 28 23 21 22 21 20 19 16 14 13 13 13 13 12 11 11 13 14 15 16 16 15 11 8 6 5 3 1 0 0 0 0 0 0 0 1 2 2
21 24 29 33 33 30 27 25 25 25 24 22 17 13 13 13 13 15 15 13 11 10 12 14 16 15 12 9 6 6 7 4 1 0 0 0 0 0 0 0 0 1 1
23 25 28 31 32 32 31 29 28 27 26 23 18 15 15 14 14 15 16 16 14 11 11 13 14 13 10 7 5 7 7 4 2 1 0 0 0 0 0 0 0 0 0
27 27 28 29 31 33 33 31 29 27 24 22 19 17 17 16 15 15 16 17 17 14 11 11 11 11 10 8 6 5 4 3 3 2 0 0 0 0 0 0 0 0 0
29 30 29 29 31 34 33 31 29 27 24 22 21 20 19 18 17 16 15 15 15 15 12 9 9 10 10 9 7 5 3 2 2 1 0 0 0 0 0 0 0 0 0
29 30 30 30 33 34 31 29 28 25 23 23 22 20 18 17 16 16 16 14 12 11 10 8 8 10 11 9 8 6 4 3 2 0 0 0 0 0 0 0 0 0 0
29 30 30 32 33 32 28 26 25 23 22 23 22 19 16 15 14 14 15 15 12 9 8 7 7 9 10 9 7 6 5 5 3 1 0 0 0 0 0 0 0 0 0
29 30 31 31 31 28 25 23 22 22 22 23 21 18 15 13 12 11 12 13 13 10 8 7 7 7 8 9 8 6 5 5 5 3 1 0 0 0 0 0 0 0 0
29 30 30 30 27 23 20 17 17 20 23 22 20 17 14 12 10 8 7 7 9 9 8 7 7 6 7 8 9 7 6 6 6 4 2 1 1 1 0 0 0 0 0
32 31 30 29 26 20 15 11 11 17 20 20 19 17 14 11 9 7 6 5 6 7 7 7 7 6 7 8 8 7 7 7 7 6 4 3 3 2 1 1 0 0 0
37 35 32 31 27 19 11 7 8 13 17 17 17 16 14 11 10 8 6 6 7 7 6 6 6 6 7 7 7 7 7 8 7 6 5 4 4 3 3 2 1 0 0
38 36 34 33 30 20 11 6 7 11 14 14 14 13 12 11 9 6 5 5 7 8 7 6 6 6 6 6 5 6 7 7 7 5 5 4 4 3 4 4 2 0 0
35 34 33 33 31 24 14 7 7 10 12 11 11 11 10 9 8 5 4 5 6 7 7 6 6 5 5 5 4 5 6 7 6 4 4 4 4 3 4 3 2 0 0

GEFSMA_con_probscp_384.txt.gz
Probability
0 0 0 0 0 0 0 0 0 0 0 0 0 0 0 0 0 0 1 2 2 3 7 9 7 3 2 3 4 4 4 4 4 5 5 5 5 3 1 1 1 0 0
0 0 0 0 0 0 0 0 0 0 0 0 0 0 0 0 0 0 0 1 1 3 8 11 10 7 5 6 6 6 4 4 5 5 4 5 5 3 1 0 0 0 0
0 0 0 0 0 0 0 0 0 0 0 0 0 0 0 0 0 0 0 0 0 2 7 12 13 10 9 9 8 7 6 6 5 4 3 3 3 3 1 0 0 0 0
1 1 0 0 0 0 0 0 0 0 0 0 0 0 0 0 0 0 0 0 0 0 3 9 12 11 10 9 8 7 7 7 7 4 2 2 2 2 1 0 0 0 0
5 3 1 1 1 0 0 0 0 0 0 0 0 0 0 0 0 0 0 0 0 0 1 4 8 9 9 9 7 7 7 8 8 7 4 2 1 1 1 0 0 0 0
8 6 3 2 2 1 0 0 0 0 0 0 0 0 0 0 0 0 0 0 0 0 0 1 3 6 8 8 8 7 7 8 8 8 6 3 1 0 0 0 0 0 0
9 8 5 4 3 2 1 0 0 0 0 0 0 0 0 0 0 0 0 0 0 0 0 1 2 5 6 8 8 8 7 7 7 7 6 5 3 2 1 1 0 0 0
10 10 8 6 4 3 1 0 0 0 0 0 0 0 0 0 0 0 0 0 0 0 0 1 2 4 5 6 8 8 7 7 7 6 5 5 5 5 4 3 1 0 0
9 10 10 8 6 4 2 0 0 1 1 0 0 0 0 0 0 0 0 0 0 0 0 0 1 3 4 5 6 6 6 5 5 5 4 4 5 6 6 4 3 1 1
9 10 11 10 8 6 3 0 0 1 1 1 1 1 1 0 0 0 0 0 0 0 0 0 1 2 3 4 4 4 4 3 3 3 3 3 4 6 5 4 3 2 2
9 11 12 11 10 9 5 2 2 2 2 2 2 2 2 1 0 0 0 0 0 0 0 1 1 2 3 3 3 2 1 1 1 2 3 3 4 5 4 3 1 1 1
9 10 13 13 12 11 8 5 5 4 4 3 2 3 3 2 1 1 1 1 1 1 2 3 3 1 1 2 1 1 0 0 0 1 1 2 3 4 5 3 1 0 0
8 9 12 14 14 12 10 8 6 5 4 3 2 3 4 4 3 3 2 2 1 2 4 6 5 1 1 2 1 0 0 0 0 0 0 1 2 4 5 4 1 0 0
9 9 11 13 13 12 10 8 7 6 5 4 3 4 5 5 5 4 3 3 3 3 4 6 4 1 1 1 1 0 0 0 0 0 0 0 1 3 4 3 1 0 0
10 10 11 11 12 11 9 7 6 6 6 5 4 4 5 6 6 4 3 3 3 3 3 3 2 1 0 1 0 0 0 0 0 0 0 0 0 2 3 3 1 0 0
10 11 11 11 12 11 9 7 6 6 7 6 4 4 5 6 6 5 4 4 3 2 2 1 1 0 1 1 1 0 0 0 0 0 0 0 0 1 2 3 2 0 0
11 13 14 13 14 14 12 10 9 9 9 6 5 4 6 7 7 6 5 4 2 1 1 0 0 1 2 2 1 0 0 0 0 0 0 0 0 0 1 2 1 0 0
11 14 15 15 16 16 15 15 15 14 13 10 7 7 7 7 7 6 4 3 2 1 0 0 0 1 1 1 1 0 0 0 0 0 0 0 0 0 0 0 0 0 0
12 14 16 17 19 18 17 16 17 17 16 14 12 10 9 7 7 6 3 3 3 2 1 0 0 0 0 0 0 0 0 0 0 0 0 0 0 0 0 0 0 0 0
14 14 15 16 18 18 16 15 15 16 16 14 13 11 10 8 6 5 3 3 3 3 1 0 0 0 0 0 0 0 0 0 0 0 0 0 0 0 0 0 0 0 0
14 14 14 14 15 16 16 14 14 14 14 13 11 10 9 7 5 4 3 3 4 4 2 1 0 0 0 0 0 0 0 0 0 0 0 0 0 0 0 0 0 0 0
14 14 13 12 12 14 14 13 12 13 12 11 9 8 8 6 5 4 3 3 4 4 3 2 1 2 1 0 0 0 0 0 0 0 0 0 0 0 0 0 0 0 0
16 15 13 12 11 12 11 10 10 11 11 9 8 7 7 6 6 6 5 3 3 3 3 3 3 3 2 1 0 0 0 0 0 0 0 0 0 0 0 0 0 0 0
18 16 14 11 10 9 9 8 8 10 10 8 7 6 6 7 8 8 7 5 2 1 1 3 3 3 3 1 0 0 0 0 0 0 0 0 0 0 0 0 0 0 0
15 14 13 11 10 7 5 4 5 8 9 7 6 6 6 7 7 7 7 6 2 1 1 2 3 3 3 2 1 0 0 0 0 0 0 0 0 0 0 0 0 0 0
11 11 11 11 10 6 3 1 3 8 9 7 5 5 6 6 5 5 5 5 3 1 2 2 3 3 3 2 1 0 0 0 0 0 0 0 0 0 0 0 0 0 0